TimeEDT,TemperatureF,Dew PointF,Humidity,Sea Level PressureIn,VisibilityMPH,Wind Direction,Wind SpeedMPH,Gust SpeedMPH,PrecipitationIn,Events,Conditions,WindDirDegrees,DateUTC
12:51 AM,73.9,71.1,91,30.24,10.0,SSW,6.9,-,N/A,,Mostly Cloudy,200,2013-07-04 04:51:00
1:51 AM,73.9,71.1,91,30.24,10.0,SSW,5.8,-,N/A,,Scattered Clouds,200,2013-07-04 05:51:00
2:51 AM,73.0,71.1,93,30.23,10.0,SSW,5.8,-,N/A,,Scattered Clouds,200,2013-07-04 06:51:00
3:51 AM,73.0,71.1,93,30.23,10.0,SSW,6.9,-,N/A,,Scattered Clouds,210,2013-07-04 07:51:00
4:51 AM,73.0,71.1,93,30.24,10.0,South,5.8,-,N/A,,Mostly Cloudy,190,2013-07-04 08:51:00
5:51 AM,73.0,71.1,93,30.24,9.0,South,4.6,-,N/A,,Mostly Cloudy,190,2013-07-04 09:51:00
6:51 AM,73.0,71.1,93,30.25,6.0,SSW,6.9,-,N/A,,Mostly Cloudy,200,2013-07-04 10:51:00
7:31 AM,75.2,73.4,94,30.26,6.0,SW,4.6,-,N/A,,Mostly Cloudy,220,2013-07-04 11:31:00
7:51 AM,75.9,73.9,94,30.27,6.0,SW,6.9,-,N/A,,Mostly Cloudy,230,2013-07-04 11:51:00
8:16 AM,78.8,73.4,83,30.27,7.0,SW,9.2,-,N/A,,Mostly Cloudy,230,2013-07-04 12:16:00
8:51 AM,79.0,73.9,84,30.27,8.0,South,6.9,-,N/A,,Scattered Clouds,190,2013-07-04 12:51:00
9:12 AM,78.8,73.4,83,30.27,8.0,SSW,8.1,-,N/A,,Mostly Cloudy,210,2013-07-04 13:12:00
9:24 AM,80.6,73.4,79,30.27,9.0,SSW,8.1,-,N/A,,Scattered Clouds,200,2013-07-04 13:24:00
9:51 AM,81.0,73.9,79,30.27,10.0,SSW,9.2,-,N/A,,Mostly Cloudy,200,2013-07-04 13:51:00
10:36 AM,80.6,73.4,79,30.26,10.0,South,10.4,-,N/A,,Mostly Cloudy,190,2013-07-04 14:36:00
10:51 AM,81.0,73.0,77,30.27,10.0,South,11.5,-,N/A,,Mostly Cloudy,190,2013-07-04 14:51:00
11:51 AM,82.0,73.0,74,30.26,10.0,South,10.4,-,N/A,,Scattered Clouds,180,2013-07-04 15:51:00
12:51 PM,82.0,73.0,74,30.25,10.0,South,11.5,-,N/A,,Scattered Clouds,190,2013-07-04 16:51:00
1:51 PM,82.9,73.9,74,30.24,10.0,South,15.0,-,N/A,,Partly Cloudy,180,2013-07-04 17:51:00
2:51 PM,81.0,72.0,74,30.23,10.0,SSW,17.3,-,N/A,,Partly Cloudy,200,2013-07-04 18:51:00
3:51 PM,82.0,72.0,71,30.20,10.0,South,17.3,-,N/A,,Scattered Clouds,190,2013-07-04 19:51:00
4:51 PM,80.1,71.1,74,30.19,10.0,South,13.8,-,N/A,,Scattered Clouds,190,2013-07-04 20:51:00
5:51 PM,79.0,70.0,74,30.18,10.0,South,15.0,-,0.00,,Partly Cloudy,190,2013-07-04 21:51:00
6:51 PM,78.1,70.0,76,30.18,10.0,South,13.8,-,N/A,,Partly Cloudy,190,2013-07-04 22:51:00
7:51 PM,75.9,70.0,82,30.19,10.0,South,16.1,-,N/A,,Partly Cloudy,190,2013-07-04 23:51:00
8:51 PM,75.0,71.1,87,30.19,10.0,South,13.8,-,N/A,,Scattered Clouds,190,2013-07-05 00:51:00
9:51 PM,75.9,72.0,87,30.21,10.0,SSW,10.4,-,N/A,,Partly Cloudy,200,2013-07-05 01:51:00
10:51 PM,73.9,71.1,91,30.22,10.0,South,6.9,-,N/A,,Partly Cloudy,190,2013-07-05 02:51:00
11:51 PM,77.0,72.0,84,30.22,10.0,SW,10.4,-,N/A,,Clear,220,2013-07-05 03:51:00